Etusivu
METAR-TAF:

METAR-TAF

Lentoasemat :

Grand Marais, Minnesota, Yhdysvallat

Leveyspiiri: 47-50N, Pituuspiiri: 090-23W, korkeus merenpinnasta: 186 m

Tämänhetkinen sää

Tämä raportti tehtiin 20 minuuttia sitten, kello 07.56 UTC
tyyntä
Lämpötila -4°C
Kosteus 68%
Ilmanpaine 1022 hPa

METAR: KGNA 250756Z AUTO 00000KT M04/M09 A3018 RMK AO1 SLP233 T10391094

Aika: 02:16 (08:16 UTC)


TAF: puuttuu

Säähavainnot ja -ennusteet yli 4000 lentoasemalta (METAR- ja TAF-raportit).

Käytössä olevat sääasemat on merkitty karttaan keltaisilla ja punaisilla pisteillä.

Aseta hiiri pisteen päälle nähdäksesi sääaseman nimen.

Klikkaa sitten nähdäksesi säähavainnot ja -ennusteet.

Kartan vaihtaminen: klikkaa mustalla rastilla varustettuja vihreitä pisteitä, niin voit zoomata sisään; viivalla varustettua vihreää pistettä, niin voit zoomata ulos tai vihreitä nuolia, niin pääset viereisille kartoille.


METAR-TAF: